[[{"header":{"parameterUnit":"m.s-1","parameterCategory":2,"la1":30.2991,"la2":30.254,"lo1":-89.0895,"lo2":-89.0444,"dy":0.0017,"dx":0.0017,"nx":28,"ny":28,"refTime":"2024-10-05T03:00:00:Z","depth":"0","parameterNumber":2,"parameterNumberName":"U-component_of_CURRENTS"},"data":[0,0,0,0,0,0,0,0,0,0,0,0,0,0,0,0,0,0,0,0,0,0,0,0,0,0,0,0,0,0,0,0,0,0,0,0,0,0,0,0,0,0,0,0,0,0,0,0,0,0,0,0,0,0,0,0,0,0,-0.1849,-0.185,0,-0.1858,-0.1858,-0.1858,-0.1831,-0.183,-0.183,-0.1829,-0.1806,-0.1806,-0.1806,0,0,0,0,0,0,0,0,0,0,0,0,0,-0.1793,-0.1794,-0.1849,-0.185,-0.185,-0.1858,-0.1858,-0.1858,-0.1831,-0.183,-0.183,-0.1829,-0.1806,-0.1806,-0.1806,0,0,0,0,0,0,0,0,0,0,0,0,0,-0.1809,-0.1795,-0.1849,-0.184,-0.1839,-0.1858,-0.1858,-0.1858,-0.1831,-0.183,-0.1829,-0.1829,-0.1806,-0.1806,-0.1806,-0.1822,0,0,-0.1805,-0.1805,0,0,0,0,0,0,0,0,-0.1808,-0.181,-0.1841,-0.184,-0.184,-0.1845,-0.183,-0.1845,-0.1831,-0.1831,-0.1829,-0.1828,-0.1819,-0.1817,-0.1817,-0.1821,-0.182,-0.1805,-0.1805,-0.1805,-0.1805,0,0,0,0,0,0,0,-0.1807,-0.181,-0.185,-0.1841,-0.1841,-0.183,-0.1831,-0.1832,-0.1827,-0.1831,-0.183,-0.1836,-0.1818,-0.1818,-0.1817,-0.1819,-0.1805,-0.1805,-0.1805,-0.1805,-0.1839,-0.184,0,0,0,0,0,0,-0.1814,-0.1809,-0.185,-0.185,-0.1825,-0.1832,-0.1833,-0.1842,-0.1827,-0.1825,-0.1836,-0.1835,-0.1818,-0.1817,-0.1816,-0.1843,-0.1805,-0.1805,-0.1805,-0.1838,-0.1839,-0.184,0,0,0,0,0,0,-0.1813,-0.1817,-0.1849,-0.1832,-0.1835,-0.1834,-0.1844,-0.1843,-0.1843,-0.1832,-0.1829,-0.1839,-0.1817,-0.1816,-0.1821,-0.1841,-0.1805,-0.1805,-0.1837,-0.1838,-0.184,-0.1891,0,0,0,0,0,0,-0.1811,-0.1817,-0.1825,-0.1833,-0.1837,-0.1869,-0.1845,-0.1843,-0.1849,-0.1847,-0.1834,-0.183,-0.1817,-0.1822,-0.1821,-0.184,-0.1805,-0.1836,-0.1838,-0.1839,-0.1888,-0.1894,-0.1899,0,0,0,0,0,-0.1809,-0.1826,-0.1825,-0.183,-0.1848,-0.187,-0.1872,-0.1865,-0.1851,-0.186,-0.1847,-0.1831,-0.1833,-0.1823,-0.1822,-0.1841,-0.1835,-0.1837,-0.1839,-0.1886,-0.1893,-0.1899,0,0,0,0,0,0,-0.1806,-0.1826,-0.1824,-0.1847,-0.1861,-0.1867,-0.1875,-0.1871,-0.1869,-0.1861,-0.1843,-0.184,-0.1853,-0.1842,-0.1831,-0.1857,-0.1832,-0.1834,-0.1867,-0.1874,-0.188,-0.1888,-0.1805,0,0,0,0,0,-0.1811,-0.1826,-0.1845,-0.1861,-0.1871,-0.1873,-0.188,-0.1878,-0.1879,-0.1876,-0.1868,-0.186,-0.1863,-0.1863,-0.1862,-0.1878,-0.1873,-0.189,-0.1895,-0.19,-0.1907,-0.1913,-0.192,-0.1848,-0.1848,-0.1848,0,0,-0.1813,-0.1826,-0.1834,-0.1861,-0.1868,-0.1893,-0.1874,-0.189,-0.1908,-0.1875,-0.189,-0.188,-0.1872,-0.1888,-0.1893,-0.188,-0.1921,-0.1903,-0.1907,-0.1911,-0.1916,-0.1923,-0.193,-0.1849,-0.1849,-0.1849,0,0,-0.183,-0.184,-0.186,-0.1878,-0.1899,-0.1906,-0.1914,-0.1925,-0.1927,-0.1943,-0.1925,-0.193,-0.1929,-0.1933,-0.1932,-0.197,-0.1951,-0.1967,-0.2001,-0.2008,-0.2014,-0.2019,-0.2033,-0.2039,-0.1969,-0.1969,-0.1969,0,-0.1833,-0.186,-0.187,-0.1898,-0.1915,-0.1915,-0.1944,-0.1954,-0.1964,-0.1972,-0.1953,-0.1963,-0.1954,-0.1981,-0.1991,-0.1984,-0.1982,-0.1976,-0.2015,-0.202,-0.2025,-0.2037,-0.2043,-0.1972,-0.1972,-0.1971,-0.1971,0,-0.1867,-0.189,-0.1905,-0.194,-0.1962,-0.1985,-0.2007,-0.2022,-0.2019,-0.2026,-0.2046,-0.2034,-0.2038,-0.204,-0.2025,-0.2057,-0.2044,-0.2022,-0.1998,-0.2035,-0.2046,-0.2051,-0.1976,-0.1975,-0.1974,-0.1973,0,0,-0.1864,-0.1919,-0.1922,-0.1943,-0.1984,-0.2003,-0.2043,-0.2077,-0.21,-0.2103,-0.213,-0.2134,-0.2117,-0.2117,-0.2102,-0.2109,-0.2139,-0.2078,-0.2077,-0.2092,-0.2158,-0.2183,-0.2191,-0.2118,-0.2119,-0.212,-0.2157,0,-0.1884,-0.1935,-0.1962,-0.2009,-0.2035,-0.206,-0.2099,-0.2129,-0.2144,-0.2172,-0.2169,-0.2183,-0.215,-0.2148,-0.2153,-0.214,-0.2153,-0.2131,-0.212,-0.212,-0.2137,-0.2198,-0.2163,-0.2196,-0.2162,-0.2163,-0.2163,0,-0.1901,-0.1934,-0.1982,-0.2039,-0.2054,-0.2084,-0.2136,-0.217,-0.2215,-0.2227,-0.2242,-0.2238,-0.2255,-0.2215,-0.2221,-0.2205,-0.2189,-0.2178,-0.2179,-0.2187,-0.2155,-0.2151,-0.2206,-0.219,-0.2171,-0.217,-0.217,0,-0.1876,-0.1943,-0.1976,-0.1997,-0.2067,-0.2091,-0.2123,-0.2177,-0.2212,-0.2255,-0.2284,-0.2295,-0.2302,-0.2285,-0.2267,-0.2239,-0.2278,-0.2233,-0.2247,-0.2248,-0.2211,-0.2208,-0.2248,-0.2245,-0.2245,-0.2245,-0.2245,0,-0.1878,-0.1903,-0.1964,-0.1981,-0.2021,-0.2075,-0.2122,-0.2159,-0.2225,-0.2275,-0.2297,-0.234,-0.2317,-0.2337,-0.2302,-0.2307,-0.2305,-0.2274,-0.2267,-0.223,-0.2228,-0.2204,-0.2191,-0.2246,-0.2246,-0.2246,-0.2246,0,-0.1839,-0.1883,-0.1919,-0.1987,-0.2007,-0.2028,-0.211,-0.2151,-0.2218,-0.2286,-0.2302,-0.2375,-0.2406,-0.2402,-0.2391,-0.2362,-0.2328,-0.2354,-0.2322,-0.2311,-0.2297,-0.2289,-0.2291,-0.2232,-0.2371,-0.2372,-0.2373,0,-0.1823,-0.1836,-0.1898,-0.1919,-0.1946,-0.1993,-0.2034,-0.212,-0.2173,-0.2309,-0.2342,-0.2417,-0.2474,-0.2499,-0.2473,-0.2455,-0.2376,-0.239,-0.2332,-0.232,-0.2304,-0.2257,-0.2202,-0.2301,-0.2301,-0.2301,-0.2302,0,-0.178,-0.1796,-0.1824,-0.1864,-0.1902,-0.1955,-0.2021,-0.2068,-0.2185,-0.227,-0.2388,-0.2454,-0.2532,-0.2536,-0.2534,-0.2484,-0.2345,-0.2393,-0.2379,-0.227,-0.222,-0.2151,-0.2259,-0.2303,-0.2303,-0.2302,-0.2302,-0.2302,-0.173,-0.1733,-0.1765,-0.1799,-0.1847,-0.1899,-0.191,-0.2021,-0.211,-0.2235,-0.2364,-0.2487,-0.2549,-0.2564,-0.2524,-0.244,-0.2392,-0.2343,-0.2339,-0.2296,-0.2229,-0.2359,-0.2397,-0.2397,-0.2397,-0.2398,-0.2398,0,-0.1658,-0.1675,-0.1703,-0.1738,-0.1759,-0.1809,-0.1886,-0.19,-0.1982,-0.217,-0.2288,-0.2507,-0.2521,-0.2539,-0.2504,-0.2412,-0.2297,-0.2315,-0.2223,-0.2169,-0.2288,-0.2275,-0.229,-0.229,-0.229,-0.229,-0.229,-0.229,-0.162,-0.1613,-0.1631,-0.1633,-0.1658,-0.1645,-0.1661,-0.1714,-0.1819,-0.2011,-0.2212,-0.242,-0.2476,-0.2627,-0.2519,-0.2392,-0.2256,-0.2202,-0.2163,-0.2247,-0.2248,-0.2249,-0.2234,-0.224,-0.224,-0.198,-0.1978,-0.1977]},{"header":{"parameterUnit":"m.s-1","parameterCategory":2,"la1":30.2991,"la2":30.254,"lo1":-89.0895,"lo2":-89.0444,"dy":0.0017,"dx":0.0017,"nx":28,"ny":28,"refTime":"2024-10-05T03:00:00:Z","depth":"0","parameterNumber":3,"parameterNumberName":"V-component_of_CURRENTS"},"data":[0,0,0,0,0,0,0,0,0,0,0,0,0,0,0,0,0,0,0,0,0,0,0,0,0,0,0,0,0,0,0,0,0,0,0,0,0,0,0,0,0,0,0,0,0,0,0,0,0,0,0,0,0,0,0,0,0,0,-0.0171,-0.017,0,-0.012,-0.012,-0.0119,-0.009,-0.009,-0.0089,-0.0089,-0.0021,-0.002,-0.0018,0,0,0,0,0,0,0,0,0,0,0,0,0,-0.0208,-0.0208,-0.0171,-0.017,-0.0169,-0.012,-0.012,-0.0119,-0.009,-0.009,-0.0089,-0.0089,-0.0022,-0.002,-0.0018,0,0,0,0,0,0,0,0,0,0,0,0,0,-0.0178,-0.0208,-0.0171,-0.0149,-0.0146,-0.012,-0.0119,-0.0119,-0.009,-0.009,-0.0089,-0.0089,-0.0023,-0.002,-0.0018,-0.0005,0,0,-0.001,-0.0009,0,0,0,0,0,0,0,0,-0.018,-0.0177,-0.0153,-0.015,-0.0148,-0.0111,-0.0108,-0.008,-0.009,-0.0111,-0.0089,-0.0089,-0.005,-0.0045,-0.0036,-0.0002,0.0001,-0.001,-0.0008,-0.0007,-0.0006,0,0,0,0,0,0,0,-0.0182,-0.0179,-0.0151,-0.0152,-0.0149,-0.013,-0.0126,-0.0102,-0.0082,-0.0109,-0.0107,-0.0101,-0.0048,-0.0039,-0.0034,0.0002,-0.001,-0.0007,-0.0006,-0.0005,0.0055,0.0055,0,0,0,0,0,0,-0.019,-0.0181,-0.0152,-0.0149,-0.0164,-0.013,-0.0125,-0.0123,-0.0082,-0.0076,-0.0102,-0.01,-0.0043,-0.0037,-0.0032,-0.0015,-0.0007,-0.0005,-0.0003,0.0055,0.0055,0.0055,0,0,0,0,0,0,-0.0191,-0.0188,-0.0154,-0.0164,-0.0158,-0.0129,-0.0127,-0.0122,-0.0113,-0.0077,-0.007,-0.0098,-0.0043,-0.0035,-0.0012,-0.0012,-0.0003,-0.0001,0.0055,0.0055,0.0055,0.0018,0,0,0,0,0,0,-0.0193,-0.0189,-0.0191,-0.0164,-0.0158,-0.0144,-0.0127,-0.0121,-0.0109,-0.0107,-0.0071,-0.0065,-0.0042,-0.0016,-0.001,-0.0009,0.0001,0.0055,0.0055,0.0055,0.0019,0.0017,0.0015,0,0,0,0,0,-0.0194,-0.02,-0.0192,-0.0188,-0.0161,-0.0144,-0.0139,-0.0118,-0.0109,-0.0108,-0.0083,-0.0066,-0.0011,-0.0014,-0.0007,-0.0005,0.0055,0.0055,0.0055,0.002,0.0017,0.0015,0,0,0,0,0,0,-0.0218,-0.0196,-0.0187,-0.0186,-0.0169,-0.014,-0.0137,-0.0121,-0.01,-0.0098,-0.0064,-0.0056,-0.0036,-0.0015,-0.002,0.0013,0.0025,0.0026,-0.0005,-0.0007,-0.0009,-0.0017,0.0003,0,0,0,0,0,-0.0224,-0.0224,-0.0198,-0.0198,-0.0191,-0.0165,-0.0155,-0.0141,-0.0118,-0.0109,-0.0082,-0.0054,-0.0029,-0.0015,0.0009,0.0027,0.0052,0.0034,0.0031,0.0029,0.0028,0.0066,0.0067,0.0056,0.0056,0.0056,0,0,-0.0234,-0.0222,-0.0222,-0.0203,-0.0189,-0.0185,-0.0159,-0.0149,-0.0143,-0.0104,-0.0089,-0.0061,-0.0026,-0.0007,0.0004,0.0011,0.0045,0.0029,0.0027,0.0028,0.0066,0.0068,0.0069,0.0056,0.0056,0.0056,0,0,-0.0258,-0.0243,-0.0252,-0.0239,-0.022,-0.0202,-0.0202,-0.0174,-0.0158,-0.0139,-0.011,-0.0081,-0.0046,-0.0018,0.0,0.0002,0.0032,0.0007,-0.0008,0.0028,0.0029,0.0031,0.006,0.0065,0.0007,0.0007,0.0007,0,-0.0272,-0.0279,-0.0252,-0.0256,-0.025,-0.0214,-0.0222,-0.0199,-0.0167,-0.0152,-0.0141,-0.0079,-0.005,-0.0018,-0.0018,-0.0003,0.0019,-0.0003,0.0025,0.0027,0.0029,0.0059,0.0064,0.0005,0.0005,0.0006,0.0006,0,-0.0301,-0.0306,-0.031,-0.0304,-0.0292,-0.0293,-0.0259,-0.0244,-0.022,-0.0192,-0.0154,-0.0109,-0.0071,-0.0057,-0.0037,-0.0008,0.0003,0.0016,0.0029,0.0028,0.006,0.0066,0.0003,0.0003,0.0004,0.0004,0,0,-0.0339,-0.0334,-0.0336,-0.0346,-0.0319,-0.0317,-0.0299,-0.0274,-0.0265,-0.0219,-0.0199,-0.0145,-0.0113,-0.009,-0.0054,-0.0021,0.0012,-0.0002,0.0001,0.0024,0.0088,0.0129,0.014,0.0029,0.003,0.0031,0.0103,0,-0.0373,-0.04,-0.038,-0.0403,-0.0416,-0.0375,-0.0365,-0.0332,-0.0295,-0.0265,-0.0198,-0.0167,-0.0126,-0.011,-0.0068,-0.0006,0.0027,-0.0009,0.009,0.0093,0.0127,0.0149,0.0187,0.0258,0.0109,0.011,0.0111,0,-0.041,-0.0425,-0.0454,-0.0461,-0.0462,-0.0463,-0.044,-0.0425,-0.0362,-0.0332,-0.0274,-0.022,-0.0152,-0.0126,-0.0012,-0.0037,0.0019,0.0067,0.0071,0.0128,0.0146,0.0237,0.0275,0.0426,0.0121,0.012,0.012,0,-0.0459,-0.0478,-0.0506,-0.0507,-0.0502,-0.0503,-0.0494,-0.0445,-0.0438,-0.0369,-0.0355,-0.0257,-0.0215,-0.0121,-0.0006,-0.0012,0.0115,0.0121,0.0213,0.0216,0.0278,0.0285,0.0471,0.0193,0.0193,0.0193,0.0192,0,-0.0506,-0.053,-0.0533,-0.055,-0.0586,-0.0555,-0.0571,-0.0543,-0.0503,-0.0503,-0.0395,-0.0366,-0.0214,-0.0117,-0.0016,0.0128,0.0115,0.0218,0.0243,0.0266,0.0271,0.0428,0.0482,0.0195,0.0195,0.0194,0.0194,0,-0.0554,-0.0555,-0.0595,-0.0605,-0.0611,-0.0634,-0.0639,-0.0652,-0.0596,-0.0591,-0.0574,-0.0446,-0.0308,-0.015,0.001,0.0113,0.0333,0.0291,0.0308,0.0334,0.0559,0.0607,0.08,0.0843,0.0407,0.0409,0.041,0,-0.0581,-0.0605,-0.0643,-0.0679,-0.0687,-0.0714,-0.074,-0.0705,-0.0715,-0.0643,-0.0648,-0.0505,-0.0404,-0.0126,0.0099,0.0309,0.0398,0.045,0.0451,0.0593,0.0665,0.0698,0.0721,0.0516,0.0518,0.052,0.0521,0,-0.0635,-0.0644,-0.0676,-0.0754,-0.0797,-0.0846,-0.0871,-0.0893,-0.0853,-0.0838,-0.0781,-0.0687,-0.0373,-0.0088,0.0218,0.0344,0.0564,0.049,0.0642,0.0776,0.082,0.0865,0.044,0.0536,0.0535,0.0534,0.0533,0.0532,-0.067,-0.0709,-0.0759,-0.0833,-0.0898,-0.0972,-0.1014,-0.1036,-0.106,-0.1032,-0.0895,-0.0737,-0.0255,0.0202,0.0361,0.075,0.0693,0.0851,0.0899,0.092,0.097,0.0575,0.0696,0.0696,0.0695,0.0695,0.0695,0,-0.0715,-0.0764,-0.0841,-0.0934,-0.1028,-0.1036,-0.1104,-0.1143,-0.1189,-0.1115,-0.1031,-0.0524,-0.0054,0.0389,0.0967,0.1161,0.1173,0.1247,0.1315,0.1315,0.0985,0.0999,0.1186,0.1186,0.1186,0.1186,0.1186,0.1186,-0.0743,-0.0819,-0.0863,-0.1029,-0.1101,-0.121,-0.1252,-0.1302,-0.1268,-0.1134,-0.0886,-0.0666,0.0056,0.1035,0.1563,0.1588,0.1703,0.1702,0.1742,0.1543,0.1509,0.1478,0.1508,0.1798,0.1799,0.2053,0.2056,0.2058]}],[{"header":{"parameterUnit":"m.s-1","parameterCategory":2,"la1":30.2991,"la2":30.254,"lo1":-89.0895,"lo2":-89.0444,"dy":0.0017,"dx":0.0017,"nx":28,"ny":28,"refTime":"2024-10-05T03:00:00:Z","depth":"2","parameterNumber":2,"parameterNumberName":"U-component_of_CURRENTS"},"data":[0,0,0,0,0,0,0,0,0,0,0,0,0,0,0,0,0,0,0,0,0,0,0,0,0,0,0,0,0,0,0,0,0,0,0,0,0,0,0,0,0,0,0,0,0,0,0,0,0,0,0,0,0,0,0,0,0,0,-0.1697,-0.1698,0,-0.1709,-0.1709,-0.1709,-0.1687,-0.1687,-0.1686,-0.1686,-0.1668,-0.1668,-0.1668,0,0,0,0,0,0,0,0,0,0,0,0,0,-0.164,-0.1641,-0.1697,-0.1698,-0.1698,-0.1709,-0.1709,-0.1709,-0.1687,-0.1687,-0.1686,-0.1686,-0.1668,-0.1668,-0.1668,0,0,0,0,0,0,0,0,0,0,0,0,0,-0.1657,-0.1641,-0.1697,-0.1691,-0.1691,-0.1709,-0.1709,-0.1709,-0.1688,-0.1687,-0.1686,-0.1686,-0.1668,-0.1668,-0.1668,-0.1681,0,0,-0.1667,-0.1667,0,0,0,0,0,0,0,0,-0.1656,-0.1659,-0.1691,-0.1691,-0.1691,-0.1698,-0.1682,-0.1699,-0.1688,-0.1686,-0.1686,-0.1685,-0.1678,-0.1677,-0.1677,-0.168,-0.1679,-0.1667,-0.1667,-0.1667,-0.1667,0,0,0,0,0,0,0,-0.1655,-0.1658,-0.1699,-0.1692,-0.1692,-0.1682,-0.1683,-0.1685,-0.1683,-0.1686,-0.1685,-0.1691,-0.1677,-0.1677,-0.1676,-0.1679,-0.1667,-0.1667,-0.1667,-0.1667,-0.1703,-0.1704,0,0,0,0,0,0,-0.1661,-0.1657,-0.1699,-0.17,-0.1675,-0.1684,-0.1685,-0.1694,-0.1683,-0.1682,-0.1692,-0.169,-0.1677,-0.1676,-0.1675,-0.1706,-0.1667,-0.1667,-0.1667,-0.1702,-0.1703,-0.1704,0,0,0,0,0,0,-0.166,-0.1665,-0.1698,-0.168,-0.1684,-0.1686,-0.1696,-0.1695,-0.1699,-0.1688,-0.1686,-0.1697,-0.1677,-0.1676,-0.1683,-0.1704,-0.1667,-0.1667,-0.1701,-0.1702,-0.1704,-0.1756,0,0,0,0,0,0,-0.1658,-0.1664,-0.1673,-0.1681,-0.1686,-0.1719,-0.1697,-0.1696,-0.1705,-0.1702,-0.1692,-0.1689,-0.1676,-0.1683,-0.1683,-0.1703,-0.1667,-0.17,-0.1702,-0.1703,-0.1753,-0.1759,-0.1765,0,0,0,0,0,-0.1656,-0.1673,-0.1673,-0.1678,-0.1698,-0.172,-0.1721,-0.1717,-0.1706,-0.1716,-0.1706,-0.169,-0.1695,-0.1684,-0.1684,-0.1704,-0.1699,-0.1701,-0.1703,-0.1751,-0.1758,-0.1765,0,0,0,0,0,0,-0.1653,-0.1673,-0.1673,-0.1696,-0.1711,-0.1717,-0.1727,-0.1724,-0.1724,-0.1719,-0.1702,-0.17,-0.1715,-0.1704,-0.1692,-0.1721,-0.1695,-0.1697,-0.1731,-0.1738,-0.1744,-0.1751,-0.1667,0,0,0,0,0,-0.1658,-0.1673,-0.1693,-0.1709,-0.172,-0.1724,-0.1732,-0.1731,-0.1734,-0.1733,-0.1727,-0.1721,-0.1725,-0.1726,-0.1726,-0.1742,-0.1736,-0.1755,-0.1761,-0.1766,-0.1771,-0.1778,-0.1785,-0.1712,-0.1712,-0.1712,0,0,-0.1661,-0.1674,-0.1683,-0.171,-0.1718,-0.1743,-0.1726,-0.1744,-0.1762,-0.1732,-0.175,-0.1741,-0.1734,-0.1751,-0.1757,-0.1744,-0.1786,-0.1768,-0.1773,-0.1776,-0.1782,-0.1789,-0.1795,-0.1713,-0.1713,-0.1713,0,0,-0.1677,-0.1688,-0.1709,-0.1727,-0.1749,-0.1757,-0.1765,-0.1779,-0.1783,-0.18,-0.1785,-0.1792,-0.1793,-0.1797,-0.1797,-0.1836,-0.1816,-0.1833,-0.1868,-0.1875,-0.1881,-0.1887,-0.1899,-0.1905,-0.1836,-0.1836,-0.1836,0,-0.1681,-0.1708,-0.1719,-0.1746,-0.1764,-0.1767,-0.1795,-0.1807,-0.1819,-0.1828,-0.1812,-0.1825,-0.1818,-0.1845,-0.1856,-0.185,-0.1848,-0.1842,-0.1883,-0.1888,-0.1892,-0.1904,-0.1909,-0.1839,-0.1839,-0.1838,-0.1838,0,-0.1714,-0.1738,-0.1753,-0.1788,-0.1811,-0.1833,-0.1856,-0.1874,-0.1874,-0.1882,-0.1905,-0.1895,-0.19,-0.1904,-0.189,-0.1923,-0.191,-0.1889,-0.1865,-0.1903,-0.1912,-0.1918,-0.1843,-0.1842,-0.1841,-0.184,0,0,-0.1712,-0.1766,-0.177,-0.1791,-0.1833,-0.1851,-0.1892,-0.1926,-0.195,-0.1957,-0.1985,-0.1991,-0.1978,-0.1978,-0.1965,-0.1973,-0.2005,-0.1945,-0.1944,-0.1958,-0.2025,-0.2043,-0.205,-0.1987,-0.1988,-0.1988,-0.2023,0,-0.1732,-0.1782,-0.1809,-0.1855,-0.1881,-0.1907,-0.1945,-0.1976,-0.1994,-0.2023,-0.2022,-0.2038,-0.201,-0.201,-0.2017,-0.2006,-0.2019,-0.1998,-0.1987,-0.1987,-0.1997,-0.2056,-0.1898,-0.1918,-0.2028,-0.2029,-0.203,0,-0.175,-0.1781,-0.1828,-0.1884,-0.1899,-0.1929,-0.1982,-0.2016,-0.2062,-0.2076,-0.2094,-0.2092,-0.2111,-0.2075,-0.2084,-0.2068,-0.2054,-0.2045,-0.2045,-0.2046,-0.2014,-0.1896,-0.1922,-0.2038,-0.2037,-0.2036,-0.2036,0,-0.1726,-0.1791,-0.1825,-0.1845,-0.1912,-0.1937,-0.197,-0.2024,-0.2058,-0.2104,-0.2133,-0.2147,-0.2157,-0.2143,-0.2129,-0.2103,-0.2141,-0.2098,-0.2106,-0.2107,-0.1963,-0.1951,-0.2111,-0.2111,-0.2111,-0.2111,-0.2111,0,-0.1729,-0.1754,-0.1813,-0.1831,-0.1871,-0.1923,-0.1971,-0.2008,-0.2073,-0.2121,-0.2148,-0.2189,-0.2173,-0.2194,-0.2162,-0.2165,-0.2167,-0.2132,-0.2124,-0.198,-0.1969,-0.2058,-0.2051,-0.2112,-0.2112,-0.2112,-0.2112,0,-0.1693,-0.1736,-0.1771,-0.1838,-0.1858,-0.1879,-0.196,-0.1999,-0.2067,-0.2133,-0.2151,-0.2222,-0.2254,-0.2253,-0.2246,-0.2216,-0.2208,-0.2207,-0.205,-0.2025,-0.2157,-0.2153,-0.2213,-0.2214,-0.2215,-0.2216,-0.2217,0,-0.1679,-0.1693,-0.1753,-0.1773,-0.1801,-0.1848,-0.1887,-0.1971,-0.2021,-0.2154,-0.2184,-0.2259,-0.2309,-0.2333,-0.2295,-0.2274,-0.2258,-0.2101,-0.2029,-0.2185,-0.2171,-0.2165,-0.216,-0.1852,-0.185,-0.1848,-0.1846,0,-0.164,-0.1657,-0.1685,-0.1723,-0.176,-0.1808,-0.1872,-0.1915,-0.2028,-0.2108,-0.2217,-0.2277,-0.2338,-0.2268,-0.226,-0.2199,-0.2092,-0.2065,-0.2258,-0.187,-0.1853,-0.1837,-0.1841,-0.1829,-0.1831,-0.1832,-0.1833,-0.1833,-0.1596,-0.1599,-0.163,-0.1662,-0.1707,-0.1752,-0.1761,-0.1862,-0.1942,-0.2046,-0.217,-0.2223,-0.2217,-0.2161,-0.2065,-0.1965,-0.2089,-0.1944,-0.1945,-0.195,-0.1922,-0.1908,-0.189,-0.1891,-0.1893,-0.1895,-0.1896,0,-0.1531,-0.1548,-0.1572,-0.1603,-0.1618,-0.1668,-0.1736,-0.1736,-0.1803,-0.1943,-0.2039,-0.1926,-0.1929,-0.1901,-0.1766,-0.1741,-0.166,-0.1619,-0.1503,-0.1524,-0.1542,-0.1487,-0.1342,-0.134,-0.1338,-0.1336,0,0,-0.1496,-0.1489,-0.1504,-0.1498,-0.1521,-0.1501,-0.1514,-0.154,-0.1601,-0.1647,-0.17,-0.1912,-0.193,-0.1676,-0.1587,-0.1451,-0.1459,-0.1372,-0.1824,-0.1712,-0.1727,-0.1747,-0.1691,0,0,0,0,0]},{"header":{"parameterUnit":"m.s-1","parameterCategory":2,"la1":30.2991,"la2":30.254,"lo1":-89.0895,"lo2":-89.0444,"dy":0.0017,"dx":0.0017,"nx":28,"ny":28,"refTime":"2024-10-05T03:00:00:Z","depth":"2","parameterNumber":3,"parameterNumberName":"V-component_of_CURRENTS"},"data":[0,0,0,0,0,0,0,0,0,0,0,0,0,0,0,0,0,0,0,0,0,0,0,0,0,0,0,0,0,0,0,0,0,0,0,0,0,0,0,0,0,0,0,0,0,0,0,0,0,0,0,0,0,0,0,0,0,0,-0.0093,-0.0092,0,-0.0044,-0.0043,-0.0042,-0.0013,-0.0013,-0.0013,-0.0013,0.0055,0.0057,0.0058,0,0,0,0,0,0,0,0,0,0,0,0,0,-0.0124,-0.0124,-0.0093,-0.0092,-0.0091,-0.0044,-0.0043,-0.0042,-0.0013,-0.0013,-0.0013,-0.0013,0.0054,0.0056,0.0058,0,0,0,0,0,0,0,0,0,0,0,0,0,-0.0096,-0.0124,-0.0093,-0.0071,-0.0069,-0.0044,-0.0043,-0.0042,-0.0013,-0.0013,-0.0013,-0.0012,0.0054,0.0056,0.0059,0.007,0,0,0.0066,0.0068,0,0,0,0,0,0,0,0,-0.0098,-0.0095,-0.0075,-0.0073,-0.007,-0.0034,-0.0029,-0.0004,-0.0013,-0.0034,-0.0013,-0.0012,0.0027,0.0031,0.004,0.0074,0.0076,0.0067,0.0068,0.0069,0.007,0,0,0,0,0,0,0,-0.01,-0.0097,-0.0073,-0.0074,-0.0071,-0.0051,-0.0047,-0.0024,-0.0005,-0.0032,-0.003,-0.0025,0.0028,0.0038,0.0042,0.0077,0.0067,0.0069,0.007,0.0071,0.0129,0.0129,0,0,0,0,0,0,-0.0108,-0.0099,-0.0075,-0.0072,-0.0084,-0.0051,-0.0047,-0.0046,-0.0006,0.0001,-0.0025,-0.0024,0.0033,0.0039,0.0044,0.0059,0.0069,0.0072,0.0073,0.0129,0.0129,0.0129,0,0,0,0,0,0,-0.0109,-0.0107,-0.0077,-0.0084,-0.0079,-0.0051,-0.005,-0.0045,-0.0036,-0.0,0.0006,-0.0022,0.0034,0.0041,0.0063,0.0062,0.0073,0.0075,0.0129,0.0129,0.0129,0.0089,0,0,0,0,0,0,-0.011,-0.0107,-0.011,-0.0085,-0.0079,-0.0068,-0.005,-0.0044,-0.0033,-0.0031,0.0005,0.0011,0.0034,0.0059,0.0066,0.0065,0.0077,0.0129,0.0129,0.0129,0.009,0.0087,0.0085,0,0,0,0,0,-0.0112,-0.0119,-0.0111,-0.0108,-0.0084,-0.0068,-0.0063,-0.0042,-0.0033,-0.0033,-0.0007,0.001,0.0064,0.0061,0.0069,0.0069,0.0129,0.0129,0.0129,0.0091,0.0088,0.0085,0,0,0,0,0,0,-0.0136,-0.0116,-0.0107,-0.0108,-0.0091,-0.0063,-0.0061,-0.0046,-0.0025,-0.0023,0.0011,0.0019,0.0038,0.0059,0.0055,0.0086,0.0099,0.0101,0.0068,0.0065,0.0063,0.0055,0.0079,0,0,0,0,0,-0.0142,-0.0143,-0.0119,-0.0121,-0.0114,-0.0088,-0.0079,-0.0066,-0.0043,-0.0034,-0.0008,0.002,0.0045,0.0059,0.0083,0.0099,0.0125,0.0105,0.0102,0.01,0.0099,0.0136,0.0136,0.0129,0.0129,0.0129,0,0,-0.0153,-0.0142,-0.0143,-0.0126,-0.0112,-0.0109,-0.0083,-0.0074,-0.0069,-0.003,-0.0016,0.0012,0.0047,0.0066,0.0076,0.0083,0.0115,0.01,0.0098,0.0098,0.0136,0.0136,0.0137,0.0129,0.0129,0.0129,0,0,-0.0178,-0.0165,-0.0175,-0.0162,-0.0144,-0.0127,-0.0127,-0.01,-0.0085,-0.0067,-0.0037,-0.001,0.0024,0.0052,0.007,0.0069,0.01,0.0075,0.0057,0.0093,0.0093,0.0094,0.0125,0.0129,0.0074,0.0074,0.0074,0,-0.0193,-0.0201,-0.0175,-0.018,-0.0174,-0.0139,-0.0148,-0.0126,-0.0095,-0.0081,-0.007,-0.0009,0.0019,0.005,0.0048,0.0064,0.0086,0.0064,0.0089,0.0091,0.0092,0.0124,0.0129,0.0072,0.0072,0.0073,0.0073,0,-0.0223,-0.0228,-0.0233,-0.0228,-0.0217,-0.0218,-0.0186,-0.0172,-0.0149,-0.0122,-0.0087,-0.0042,-0.0006,0.0008,0.0027,0.0054,0.0067,0.008,0.0094,0.0091,0.0124,0.013,0.0069,0.007,0.0071,0.0071,0,0,-0.0262,-0.0257,-0.0259,-0.0268,-0.0243,-0.0242,-0.0227,-0.0204,-0.0195,-0.0151,-0.0133,-0.0082,-0.005,-0.0028,0.0007,0.0039,0.0071,0.006,0.0062,0.0085,0.0145,0.0185,0.0195,0.0086,0.0087,0.0088,0.0162,0,-0.0296,-0.0322,-0.0303,-0.0326,-0.0338,-0.0299,-0.0291,-0.0261,-0.0225,-0.0196,-0.0133,-0.0103,-0.0065,-0.0049,-0.0009,0.0052,0.0085,0.0049,0.015,0.0153,0.0184,0.0203,0.0184,0.0251,0.0168,0.017,0.017,0,-0.0332,-0.0346,-0.0374,-0.0381,-0.0382,-0.0384,-0.0363,-0.035,-0.029,-0.0262,-0.0207,-0.0155,-0.0092,-0.0066,0.0045,0.0019,0.0076,0.0124,0.0128,0.0183,0.0203,0.0243,0.0266,0.0181,0.018,0.0179,0.0178,0,-0.0378,-0.0397,-0.0424,-0.0425,-0.0421,-0.0423,-0.0415,-0.037,-0.0363,-0.0298,-0.0284,-0.0192,-0.0151,-0.006,0.0052,0.0045,0.0172,0.0177,0.0266,0.0269,0.0283,0.0287,0.0247,0.0247,0.0247,0.0246,0.0246,0,-0.0423,-0.0447,-0.045,-0.0466,-0.05,-0.0472,-0.0488,-0.0462,-0.0425,-0.0424,-0.0323,-0.0293,-0.015,-0.0054,0.0044,0.0184,0.0171,0.0271,0.0296,0.0269,0.027,0.0232,0.0229,0.0249,0.0249,0.0248,0.0247,0,-0.0469,-0.047,-0.0508,-0.0518,-0.0524,-0.0546,-0.0552,-0.0564,-0.0512,-0.0506,-0.049,-0.0367,-0.0234,-0.0082,0.0073,0.0171,0.0299,0.0346,0.0307,0.0327,0.0371,0.0365,0.0453,0.0455,0.0457,0.0459,0.046,0,-0.0494,-0.0517,-0.0553,-0.0587,-0.0595,-0.0621,-0.0646,-0.0615,-0.0623,-0.0553,-0.0556,-0.0418,-0.0321,-0.0052,0.0155,0.0355,0.034,0.0442,0.0432,0.0379,0.0395,0.0386,0.0378,0.043,0.0431,0.0432,0.0433,0,-0.0545,-0.0554,-0.0584,-0.0657,-0.0698,-0.0744,-0.0768,-0.0788,-0.0751,-0.0735,-0.0677,-0.0586,-0.0293,-0.0049,0.0239,0.0351,0.0415,0.0464,0.0428,0.0383,0.0365,0.0377,0.0369,0.0439,0.0439,0.0438,0.0438,0.0438,-0.0578,-0.0615,-0.0661,-0.0731,-0.0791,-0.086,-0.09,-0.092,-0.094,-0.0909,-0.078,-0.0629,-0.0335,0.0071,0.0291,0.0498,0.049,0.0531,0.0525,0.052,0.0506,0.0492,0.0587,0.0588,0.0588,0.0588,0.0588,0,-0.0621,-0.0666,-0.0737,-0.0823,-0.091,-0.0921,-0.0983,-0.1014,-0.1055,-0.0986,-0.0904,-0.059,-0.0265,0.0031,0.0377,0.0582,0.0561,0.0599,0.0535,0.0528,0.0522,0.0505,0.0588,0.0589,0.0589,0.0589,0,0,-0.0647,-0.0717,-0.0757,-0.0909,-0.0978,-0.1081,-0.1121,-0.1154,-0.112,-0.1079,-0.0951,-0.0702,-0.0294,-0.0054,0.0229,0.041,0.0396,0.0417,0.0398,0.028,0.0271,0.0471,0.0436,0,0,0,0,0]}],[{"header":{"parameterUnit":"m.s-1","parameterCategory":2,"la1":30.2991,"la2":30.254,"lo1":-89.0895,"lo2":-89.0444,"dy":0.0017,"dx":0.0017,"nx":28,"ny":28,"refTime":"2024-10-05T03:00:00:Z","depth":"4","parameterNumber":2,"parameterNumberName":"U-component_of_CURRENTS"},"data":[0,0,0,0,0,0,0,0,0,0,0,0,0,0,0,0,0,0,0,0,0,0,0,0,0,0,0,0,0,0,0,0,0,0,0,0,0,0,0,0,0,0,0,0,0,0,0,0,0,0,0,0,0,0,0,0,0,0,-0.1217,-0.1218,0,-0.1265,-0.1265,-0.1265,-0.129,-0.129,-0.129,-0.129,-0.1326,-0.1327,-0.1328,0,0,0,0,0,0,0,0,0,0,0,0,0,-0.1135,-0.1136,-0.1217,-0.1218,-0.1219,-0.1264,-0.1265,-0.1265,-0.129,-0.129,-0.129,-0.129,-0.1326,-0.1327,-0.1328,0,0,0,0,0,0,0,0,0,0,0,0,0,-0.1174,-0.1137,-0.1217,-0.1238,-0.124,-0.1264,-0.1265,-0.1266,-0.1289,-0.129,-0.129,-0.129,-0.1326,-0.1327,-0.1328,-0.1329,0,0,-0.1331,-0.1332,0,0,0,0,0,0,0,0,-0.1171,-0.1176,-0.1234,-0.1236,-0.1239,-0.1273,-0.1249,-0.1287,-0.1289,-0.1269,-0.129,-0.1291,-0.1308,-0.1311,-0.1317,-0.1331,-0.1332,-0.1332,-0.1332,-0.1333,-0.1333,0,0,0,0,0,0,0,-0.1169,-0.1174,-0.1234,-0.1235,-0.1238,-0.1241,-0.1246,-0.1256,-0.1285,-0.1271,-0.1273,-0.1281,-0.131,-0.1315,-0.1318,-0.1333,-0.1331,-0.1333,-0.1333,-0.1334,-0.1409,-0.1411,0,0,0,0,0,0,-0.1167,-0.1172,-0.1233,-0.1236,-0.1208,-0.1242,-0.1248,-0.126,-0.1285,-0.1289,-0.1281,-0.1282,-0.1313,-0.1316,-0.1319,-0.1381,-0.1333,-0.1334,-0.1334,-0.1408,-0.141,-0.1411,0,0,0,0,0,0,-0.1166,-0.1172,-0.1231,-0.1206,-0.1214,-0.1243,-0.1257,-0.1261,-0.129,-0.1293,-0.1297,-0.1307,-0.1314,-0.1317,-0.135,-0.138,-0.1334,-0.1335,-0.1406,-0.1408,-0.141,-0.1467,0,0,0,0,0,0,-0.1163,-0.1172,-0.119,-0.1206,-0.1215,-0.1263,-0.1257,-0.1262,-0.1294,-0.1297,-0.1317,-0.1319,-0.1314,-0.1349,-0.1352,-0.1381,-0.1336,-0.1405,-0.1407,-0.141,-0.1463,-0.147,-0.1477,0,0,0,0,0,-0.116,-0.1181,-0.1191,-0.1199,-0.1237,-0.1264,-0.127,-0.1289,-0.1295,-0.1314,-0.1329,-0.132,-0.1366,-0.1351,-0.1354,-0.1384,-0.1404,-0.1407,-0.141,-0.146,-0.1469,-0.1476,0,0,0,0,0,0,-0.1157,-0.1187,-0.1197,-0.1228,-0.1253,-0.127,-0.1293,-0.1303,-0.133,-0.1337,-0.1336,-0.134,-0.138,-0.1375,-0.1358,-0.1413,-0.1384,-0.1387,-0.1421,-0.143,-0.1436,-0.1436,-0.1337,0,0,0,0,0,-0.1164,-0.119,-0.1215,-0.1243,-0.1258,-0.128,-0.1297,-0.1311,-0.1331,-0.1344,-0.1359,-0.1374,-0.139,-0.1405,-0.1416,-0.1448,-0.144,-0.147,-0.1476,-0.1482,-0.1484,-0.1494,-0.1502,-0.1421,-0.1421,-0.1421,0,0,-0.1171,-0.1191,-0.1207,-0.1244,-0.1265,-0.1296,-0.1292,-0.1326,-0.1356,-0.1343,-0.1393,-0.14,-0.1404,-0.1439,-0.1457,-0.1442,-0.1503,-0.1486,-0.149,-0.149,-0.1498,-0.1506,-0.1513,-0.1423,-0.1422,-0.1422,0,0,-0.1191,-0.1217,-0.1244,-0.1269,-0.1308,-0.1322,-0.1338,-0.137,-0.1392,-0.1433,-0.1432,-0.1459,-0.1487,-0.1497,-0.1503,-0.1554,-0.1537,-0.1561,-0.1598,-0.1608,-0.1615,-0.162,-0.1628,-0.1634,-0.1566,-0.1566,-0.1566,0,-0.1201,-0.1235,-0.1257,-0.1289,-0.1315,-0.1337,-0.1372,-0.1398,-0.1438,-0.1459,-0.1459,-0.1506,-0.1513,-0.155,-0.157,-0.157,-0.157,-0.1566,-0.1616,-0.1621,-0.1626,-0.1633,-0.1639,-0.1569,-0.1569,-0.1568,-0.1568,0,-0.1233,-0.1271,-0.129,-0.1338,-0.1369,-0.1403,-0.1439,-0.1476,-0.1502,-0.1522,-0.1572,-0.1581,-0.1605,-0.1616,-0.161,-0.1652,-0.164,-0.1622,-0.1594,-0.1638,-0.1642,-0.1647,-0.1573,-0.1572,-0.1571,-0.157,0,0,-0.1226,-0.1299,-0.1309,-0.1339,-0.1398,-0.1423,-0.1481,-0.1531,-0.1568,-0.1605,-0.1648,-0.168,-0.1682,-0.1689,-0.1687,-0.1701,-0.1739,-0.1681,-0.168,-0.1686,-0.1764,-0.1681,-0.1678,-0.1729,-0.173,-0.1731,-0.1756,0,-0.1247,-0.1308,-0.1344,-0.1407,-0.144,-0.1484,-0.1534,-0.1583,-0.1622,-0.167,-0.1688,-0.1726,-0.1711,-0.1726,-0.1739,-0.1738,-0.1753,-0.1734,-0.1723,-0.1722,-0.1641,-0.1681,-0.1734,-0.176,-0.1761,-0.1762,-0.1762,0,-0.126,-0.1301,-0.1365,-0.144,-0.146,-0.1504,-0.158,-0.1626,-0.1693,-0.1724,-0.1761,-0.1775,-0.1811,-0.1786,-0.1808,-0.1796,-0.1788,-0.1782,-0.1782,-0.1686,-0.1648,-0.1705,-0.1771,-0.177,-0.1769,-0.1769,-0.1768,0,-0.1227,-0.1312,-0.1363,-0.139,-0.1479,-0.1521,-0.1569,-0.1642,-0.1685,-0.1756,-0.1793,-0.1828,-0.1852,-0.185,-0.1847,-0.183,-0.1863,-0.1833,-0.1754,-0.1748,-0.1788,-0.1782,-0.1849,-0.1849,-0.1849,-0.1849,-0.1848,0,-0.1218,-0.1262,-0.1356,-0.1382,-0.1443,-0.1511,-0.158,-0.1631,-0.171,-0.1759,-0.1814,-0.1849,-0.187,-0.1892,-0.1872,-0.183,-0.1883,-0.1766,-0.175,-0.1813,-0.1809,-0.1792,-0.1785,-0.1849,-0.1849,-0.1849,-0.1849,0,-0.117,-0.1235,-0.1295,-0.1396,-0.1429,-0.1469,-0.1576,-0.1618,-0.1705,-0.1771,-0.1797,-0.1875,-0.1899,-0.1915,-0.1919,-0.1855,-0.1828,-0.1802,-0.1885,-0.1873,-0.1699,-0.1695,-0.1703,-0.17,-0.1698,-0.1696,-0.1694,0,-0.1149,-0.1178,-0.1286,-0.132,-0.137,-0.1445,-0.1493,-0.1595,-0.1639,-0.1773,-0.1791,-0.1865,-0.1902,-0.1843,-0.1864,-0.1828,-0.1803,-0.1775,-0.1719,-0.1701,-0.1685,-0.1684,-0.1683,-0.169,-0.169,-0.1689,-0.1689,0,-0.1103,-0.1152,-0.12,-0.1264,-0.1323,-0.1383,-0.1461,-0.1487,-0.1605,-0.1704,-0.1745,-0.1761,-0.1795,-0.1785,-0.1778,-0.1746,-0.178,-0.1751,-0.1754,-0.1701,-0.1686,-0.1672,-0.1674,-0.1681,-0.1682,-0.1683,-0.1683,0,-0.1066,-0.1084,-0.1148,-0.1194,-0.1263,-0.1298,-0.1354,-0.1412,-0.1469,-0.1618,-0.163,-0.1712,-0.1789,-0.1745,-0.1737,-0.1704,-0.1664,-0.1591,-0.1602,-0.1611,-0.1567,-0.1534,-0.1473,0,0,0,0,0,-0.1021,-0.1033,-0.1071,-0.1116,-0.1179,-0.1214,-0.1321,-0.1381,-0.1502,-0.1496,-0.156,-0.1589,-0.1593,-0.1631,-0.1572,-0.168,-0.1661,-0.1604,-0.1581,-0.1637,-0.1646,-0.16,0,0,0,0,0,0,-0.0991,-0.1027,-0.1039,-0.1035,-0.1048,-0.1104,-0.1168,-0.1253,-0.1259,-0.1388,-0.1396,-0.1489,-0.1509,-0.16,-0.1537,-0.1546,-0.15,-0.1655,-0.1651,-0.1632,-0.164,-0.1647,-0.1603,0,0,0,0,0]},{"header":{"parameterUnit":"m.s-1","parameterCategory":2,"la1":30.2991,"la2":30.254,"lo1":-89.0895,"lo2":-89.0444,"dy":0.0017,"dx":0.0017,"nx":28,"ny":28,"refTime":"2024-10-05T03:00:00:Z","depth":"4","parameterNumber":3,"parameterNumberName":"V-component_of_CURRENTS"},"data":[0,0,0,0,0,0,0,0,0,0,0,0,0,0,0,0,0,0,0,0,0,0,0,0,0,0,0,0,0,0,0,0,0,0,0,0,0,0,0,0,0,0,0,0,0,0,0,0,0,0,0,0,0,0,0,0,0,0,-0.0041,-0.004,0,-0.0004,-0.0004,-0.0003,0.0024,0.0024,0.0024,0.0025,0.0086,0.0088,0.0089,0,0,0,0,0,0,0,0,0,0,0,0,0,-0.0052,-0.0053,-0.0041,-0.004,-0.004,-0.0004,-0.0004,-0.0003,0.0024,0.0024,0.0024,0.0025,0.0086,0.0088,0.0089,0,0,0,0,0,0,0,0,0,0,0,0,0,-0.0035,-0.0053,-0.0041,-0.0022,-0.002,-0.0004,-0.0004,-0.0003,0.0024,0.0024,0.0025,0.0025,0.0085,0.0087,0.009,0.0097,0,0,0.0096,0.0097,0,0,0,0,0,0,0,0,-0.0036,-0.0034,-0.0026,-0.0024,-0.0021,0.0005,0.0015,0.0032,0.0024,0.0007,0.0025,0.0025,0.0061,0.0065,0.0072,0.01,0.0102,0.0096,0.0098,0.0099,0.0099,0,0,0,0,0,0,0,-0.0037,-0.0035,-0.0026,-0.0025,-0.0023,-0.0004,-0.0001,0.0018,0.0033,0.0009,0.0011,0.0014,0.0063,0.0069,0.0073,0.0103,0.0096,0.0098,0.01,0.01,0.0149,0.0149,0,0,0,0,0,0,-0.0044,-0.0037,-0.0027,-0.0025,-0.0028,-0.0004,-0.0001,-0.0003,0.0032,0.0037,0.0014,0.0016,0.0066,0.0071,0.0076,0.0086,0.0099,0.0101,0.0102,0.0149,0.0149,0.0149,0,0,0,0,0,0,-0.0045,-0.0044,-0.0029,-0.003,-0.0027,-0.0005,-0.0007,-0.0003,0.0005,0.0036,0.0042,0.0017,0.0066,0.0073,0.0092,0.0089,0.0102,0.0104,0.0149,0.0149,0.0149,0.0108,0,0,0,0,0,0,-0.0045,-0.0045,-0.0049,-0.0031,-0.0027,-0.0024,-0.0007,-0.0002,0.0006,0.0009,0.004,0.0046,0.0067,0.0089,0.0094,0.0092,0.0105,0.0149,0.0149,0.0149,0.0109,0.0106,0.0104,0,0,0,0,0,-0.0046,-0.0056,-0.0049,-0.0048,-0.0033,-0.0024,-0.002,-0.0003,0.0006,0.0006,0.0029,0.0045,0.0093,0.009,0.0097,0.0095,0.0149,0.0149,0.0149,0.011,0.0107,0.0104,0,0,0,0,0,0,-0.0065,-0.0053,-0.0046,-0.0052,-0.004,-0.002,-0.0019,-0.0006,0.0012,0.0014,0.0045,0.0053,0.0069,0.0088,0.0085,0.011,0.0124,0.0125,0.0092,0.0089,0.0087,0.0079,0.0107,0,0,0,0,0,-0.0071,-0.0075,-0.0059,-0.0064,-0.006,-0.0039,-0.0033,-0.0022,-0.0004,0.0004,0.0027,0.0052,0.0074,0.0085,0.0107,0.0119,0.0144,0.0124,0.0121,0.0119,0.0118,0.0149,0.0149,0.0149,0.0149,0.0149,0,0,-0.0081,-0.0075,-0.0077,-0.0068,-0.0058,-0.0058,-0.0035,-0.003,-0.0028,0.0008,0.0019,0.0044,0.0075,0.009,0.0099,0.0105,0.0132,0.0119,0.0116,0.0117,0.0149,0.0149,0.0149,0.0149,0.0149,0.0149,0,0,-0.0104,-0.0097,-0.0107,-0.0099,-0.0086,-0.0074,-0.0074,-0.0054,-0.0042,-0.0029,-0.0002,0.0021,0.0051,0.0074,0.0089,0.0086,0.0117,0.0093,0.0074,0.0104,0.0104,0.0105,0.0136,0.0139,0.0091,0.0091,0.0091,0,-0.0117,-0.0126,-0.0108,-0.0114,-0.0111,-0.0084,-0.0093,-0.0077,-0.0053,-0.0043,-0.0032,0.0019,0.0044,0.0068,0.0066,0.008,0.0103,0.0081,0.01,0.0101,0.0102,0.0134,0.0139,0.0089,0.0089,0.0089,0.009,0,-0.0143,-0.0151,-0.0156,-0.0155,-0.0149,-0.0153,-0.013,-0.0121,-0.0102,-0.0083,-0.0054,-0.0016,0.0015,0.0027,0.0045,0.0066,0.0081,0.0092,0.0105,0.01,0.0134,0.0139,0.0086,0.0087,0.0087,0.0088,0,0,-0.0173,-0.0175,-0.0178,-0.0187,-0.0172,-0.0173,-0.0166,-0.0152,-0.0148,-0.0113,-0.0099,-0.0058,-0.0031,-0.0011,0.002,0.0047,0.0075,0.0069,0.0072,0.0095,0.0144,0.0149,0.0156,0.0089,0.0089,0.009,0.0165,0,-0.02,-0.0225,-0.0215,-0.0238,-0.0248,-0.0223,-0.0221,-0.0202,-0.0175,-0.0154,-0.0103,-0.0078,-0.0046,-0.0031,0.0002,0.0059,0.0087,0.0054,0.0151,0.0153,0.0155,0.0162,0.0092,0.0169,0.017,0.0171,0.0172,0,-0.0227,-0.0241,-0.0269,-0.0282,-0.0284,-0.0291,-0.0281,-0.0275,-0.0232,-0.021,-0.0168,-0.0124,-0.0072,-0.0048,0.0049,0.0026,0.0079,0.0123,0.0127,0.015,0.0169,0.0177,0.0182,0.0181,0.018,0.018,0.0179,0,-0.0256,-0.0279,-0.0305,-0.0308,-0.0314,-0.0322,-0.0322,-0.0293,-0.029,-0.0242,-0.023,-0.0155,-0.0119,-0.004,0.006,0.0053,0.0168,0.0172,0.0228,0.0229,0.022,0.0218,0.0234,0.0234,0.0234,0.0233,0.0233,0,-0.0284,-0.0307,-0.0324,-0.0337,-0.0371,-0.0357,-0.0378,-0.0362,-0.0339,-0.0339,-0.0262,-0.0234,-0.0116,-0.0032,0.0054,0.0164,0.0168,0.0228,0.0249,0.0201,0.0197,0.0224,0.0222,0.0236,0.0236,0.0235,0.0234,0,-0.0307,-0.0318,-0.0353,-0.0374,-0.0386,-0.0408,-0.0427,-0.0439,-0.0406,-0.0401,-0.0388,-0.029,-0.0177,-0.0052,0.0085,0.0152,0.0259,0.0294,0.024,0.0257,0.0299,0.0293,0.0358,0.0359,0.036,0.036,0.0361,0,-0.0319,-0.0339,-0.0384,-0.0415,-0.043,-0.0461,-0.0487,-0.0476,-0.0483,-0.0433,-0.0431,-0.0321,-0.0244,-0.0043,0.0093,0.0268,0.0286,0.034,0.0312,0.0298,0.0312,0.0305,0.03,0.0362,0.0362,0.0362,0.0362,0,-0.0344,-0.036,-0.0388,-0.0452,-0.0495,-0.0541,-0.057,-0.0582,-0.0564,-0.0537,-0.0469,-0.0352,-0.0219,-0.0051,0.0092,0.0215,0.0306,0.0347,0.0346,0.032,0.0303,0.0315,0.0308,0.0365,0.0364,0.0364,0.0364,0,-0.0359,-0.0386,-0.0428,-0.0484,-0.0547,-0.0604,-0.0615,-0.0618,-0.0618,-0.0559,-0.0533,-0.0378,-0.0282,-0.0077,0.0057,0.0182,0.0203,0.0227,0.0232,0.0232,0.0174,0.0132,0.0162,0,0,0,0,0,-0.0373,-0.0406,-0.0461,-0.0525,-0.0591,-0.0629,-0.0666,-0.0666,-0.0646,-0.0616,-0.0576,-0.0451,-0.0238,-0.0127,-0.0005,0.0067,0.0225,0.0214,0.0254,0.0378,0.0375,0.033,0,0,0,0,0,0,-0.0384,-0.0432,-0.046,-0.055,-0.0604,-0.0676,-0.0706,-0.0695,-0.0665,-0.0623,-0.0506,-0.0432,-0.0218,-0.0316,-0.0008,0.0036,0.0075,0.0323,0.0326,0.038,0.0377,0.0375,0.0328,0,0,0,0,0]}]]